[[{"header":{"parameterUnit":"m.s-1","parameterCategory":1,"la1":30.2991,"la2":30.254,"lo1":-89.0895,"lo2":-89.0444,"dy":0.0017,"dx":0.0017,"nx":28,"ny":28,"refTime":"2023-07-25T03:00:00:Z","depth":0,"parameterNumber":2,"parameterNumberName":"U-component_of_WINDS"},"data":[0,0,0,0,0,0,0,0,0,0,0,0,0,0,0,0,0,0,0,0,0,0,0,0,0,0,0,0,0,0,0,0,0,0,0,0,0,0,0,0,0,0,0,0,0,0,0,0,0,0,0,0,0,0,0,0,0,0,0.0944,0.0946,0,0.109,0.1092,0.1094,0.1167,0.1167,0.1167,0.1167,0.1319,0.1323,0.1327,0,0,0,0,0,0,0,0,0,0,0,0,0,0.0729,0.0732,0.0944,0.0946,0.0948,0.109,0.1092,0.1094,0.1167,0.1167,0.1167,0.1167,0.1318,0.1323,0.1327,0,0,0,0,0,0,0,0,0,0,0,0,0,0.0843,0.0734,0.0944,0.1001,0.1008,0.109,0.1092,0.1095,0.1167,0.1167,0.1167,0.1167,0.1316,0.1322,0.1328,0.1365,0,0,0.1347,0.1349,0,0,0,0,0,0,0,0,0.0837,0.0851,0.0991,0.0997,0.1005,0.111,0.1072,0.1185,0.1167,0.1107,0.1167,0.1167,0.125,0.1261,0.1289,0.1372,0.1378,0.1347,0.1351,0.1353,0.1355,0,0,0,0,0,0,0,0.0829,0.0845,0.1002,0.0993,0.1001,0.102,0.1036,0.1094,0.1176,0.1112,0.1118,0.1134,0.1254,0.1283,0.1293,0.138,0.1347,0.1352,0.1356,0.1358,0.15,0.15,0,0,0,0,0,0,0.0811,0.0838,0.0997,0.1006,0.0919,0.1024,0.1042,0.1077,0.1176,0.1191,0.1134,0.1137,0.1272,0.1286,0.1298,0.1347,0.1353,0.1359,0.1362,0.15,0.15,0.15,0,0,0,0,0,0,0.0806,0.0825,0.0991,0.0924,0.0947,0.1027,0.1066,0.1079,0.1109,0.1192,0.1207,0.1148,0.1273,0.129,0.1347,0.1354,0.1362,0.1367,0.15,0.15,0.15,0.1445,0,0,0,0,0,0,0.08,0.0823,0.0837,0.0924,0.095,0.1037,0.1066,0.1082,0.1119,0.1124,0.121,0.1224,0.1274,0.1338,0.1353,0.1362,0.1372,0.1499,0.15,0.15,0.1447,0.1443,0.1441,0,0,0,0,0,0.0792,0.0817,0.0837,0.0856,0.097,0.1037,0.1052,0.1109,0.1119,0.1134,0.1188,0.1221,0.135,0.1343,0.1361,0.1372,0.1499,0.15,0.15,0.1448,0.1444,0.1441,0,0,0,0,0,0,0.073,0.0829,0.0853,0.0907,0.0963,0.105,0.1071,0.1103,0.1159,0.1161,0.123,0.1249,0.1299,0.1342,0.1332,0.1412,0.1428,0.1432,0.1383,0.1379,0.1376,0.1365,0.1377,0,0,0,0,0,0.0722,0.0768,0.0853,0.0892,0.0918,0.0989,0.1021,0.106,0.1121,0.1146,0.1203,0.1262,0.1316,0.135,0.1404,0.1453,0.1473,0.1469,0.1466,0.1463,0.1466,0.1494,0.1493,0.1501,0.1501,0.1501,0,0,0.0707,0.0767,0.0792,0.088,0.0929,0.0975,0.1009,0.1057,0.1093,0.1153,0.121,0.1255,0.1325,0.1378,0.1404,0.1414,0.1468,0.1463,0.146,0.1465,0.1494,0.1493,0.1493,0.1501,0.1501,0.1501,0,0,0.0703,0.0753,0.0791,0.0838,0.091,0.0957,0.0965,0.1047,0.1079,0.1137,0.1183,0.1226,0.1317,0.1365,0.1401,0.1414,0.1447,0.143,0.1414,0.1441,0.144,0.144,0.1444,0.1445,0.1432,0.1432,0.1432,0,0.0675,0.0747,0.0806,0.0851,0.0888,0.0944,0.0982,0.1026,0.1112,0.1136,0.1147,0.1261,0.1313,0.1377,0.138,0.1407,0.142,0.142,0.1435,0.1436,0.1436,0.1441,0.1442,0.1429,0.143,0.143,0.143,0,0.0709,0.0758,0.078,0.086,0.09,0.0942,0.1007,0.104,0.1075,0.112,0.1179,0.1242,0.1309,0.1327,0.1362,0.1396,0.14,0.1422,0.144,0.1432,0.1437,0.144,0.1426,0.1427,0.1427,0.1428,0,0,0.0672,0.0783,0.079,0.0827,0.091,0.0949,0.0993,0.1058,0.1085,0.1142,0.118,0.1255,0.1275,0.1316,0.1357,0.138,0.1385,0.1399,0.1402,0.1394,0.1426,0.1409,0.1411,0.1407,0.1408,0.1408,0.142,0,0.068,0.076,0.0813,0.0873,0.0919,0.0971,0.101,0.1064,0.1108,0.1153,0.1202,0.1254,0.1276,0.1301,0.1326,0.1379,0.1393,0.1379,0.1444,0.1446,0.1425,0.1414,0.1397,0.1405,0.1423,0.1423,0.1424,0,0.07,0.0754,0.0818,0.0895,0.0916,0.0949,0.1012,0.1055,0.1118,0.1148,0.1193,0.1234,0.1282,0.1295,0.1362,0.1352,0.1382,0.1411,0.1413,0.1421,0.1434,0.1422,0.1409,0.141,0.1428,0.1427,0.1427,0,0.0665,0.0755,0.0804,0.0834,0.0925,0.0947,0.0986,0.1049,0.1084,0.114,0.1163,0.1224,0.1257,0.1303,0.1359,0.1363,0.1421,0.1438,0.1447,0.1445,0.1457,0.1456,0.1449,0.1476,0.1476,0.1476,0.1476,0,0.0669,0.0706,0.079,0.082,0.0863,0.0924,0.0964,0.1008,0.1063,0.1103,0.1153,0.1189,0.1261,0.1306,0.135,0.1399,0.1414,0.144,0.1451,0.1435,0.1432,0.1456,0.1457,0.1476,0.1476,0.1476,0.1476,0,0.0638,0.0696,0.0753,0.0834,0.0855,0.0883,0.0952,0.0984,0.1029,0.1079,0.1094,0.1166,0.1221,0.1281,0.1358,0.1387,0.1434,0.145,0.1412,0.1419,0.1424,0.1422,0.1432,0.1436,0.146,0.146,0.1459,0,0.0636,0.0666,0.0749,0.0779,0.0816,0.0864,0.0899,0.096,0.0995,0.1069,0.1091,0.115,0.1201,0.1287,0.1346,0.1404,0.1422,0.1422,0.1432,0.1414,0.1422,0.142,0.1423,0.1419,0.1418,0.1418,0.1417,0,0.0627,0.0654,0.0703,0.0762,0.0803,0.0853,0.0904,0.0926,0.0997,0.1034,0.1091,0.1129,0.1206,0.1264,0.1329,0.137,0.1406,0.1413,0.1419,0.1403,0.138,0.1392,0.1404,0.1413,0.1414,0.1414,0.1414,0.1414,0.0611,0.0639,0.0702,0.0755,0.08,0.0846,0.0879,0.0928,0.0976,0.1043,0.1076,0.1132,0.1194,0.1285,0.1325,0.137,0.1381,0.1388,0.139,0.1391,0.1387,0.1372,0.1382,0.1382,0.1382,0.1383,0.1383,0,0.0604,0.0647,0.0695,0.0764,0.0806,0.0834,0.0892,0.0925,0.0974,0.1028,0.1076,0.1141,0.1197,0.126,0.132,0.1344,0.1361,0.1357,0.1356,0.1365,0.1374,0.1363,0.1342,0.1342,0.1342,0.1342,0.1342,0.1342,0.0605,0.0654,0.0688,0.0759,0.0802,0.0857,0.0887,0.0931,0.0974,0.1044,0.109,0.113,0.1188,0.1252,0.1304,0.1322,0.1341,0.1332,0.1354,0.1361,0.1364,0.1368,0.1358,0.1336,0.1336,0.1342,0.1342,0.1342]},{"header":{"parameterUnit":"m.s-1","parameterCategory":1,"la1":30.2991,"la2":30.254,"lo1":-89.0895,"lo2":-89.0444,"dy":0.0017,"dx":0.0017,"nx":28,"ny":28,"refTime":"2023-07-25T03:00:00:Z","depth":0,"parameterNumber":3,"parameterNumberName":"V-component_of_WINDS"},"data":[0,0,0,0,0,0,0,0,0,0,0,0,0,0,0,0,0,0,0,0,0,0,0,0,0,0,0,0,0,0,0,0,0,0,0,0,0,0,0,0,0,0,0,0,0,0,0,0,0,0,0,0,0,0,0,0,0,0,3.3538,3.3538,0,3.3485,3.3485,3.3484,3.3443,3.3442,3.3442,3.3442,3.3383,3.3382,3.3381,0,0,0,0,0,0,0,0,0,0,0,0,0,3.3599,3.3598,3.3538,3.3538,3.3537,3.3486,3.3485,3.3484,3.3443,3.3442,3.3442,3.3442,3.3384,3.3382,3.3381,0,0,0,0,0,0,0,0,0,0,0,0,0,3.3562,3.3598,3.3538,3.351,3.3507,3.3486,3.3485,3.3484,3.3443,3.3442,3.3442,3.3441,3.3384,3.3382,3.3381,3.3381,0,0,3.3375,3.3374,0,0,0,0,0,0,0,0,3.3564,3.356,3.3515,3.3512,3.3509,3.347,3.3485,3.3449,3.3443,3.3467,3.3442,3.3441,3.3412,3.3408,3.3399,3.3379,3.3376,3.3375,3.3374,3.3373,3.3373,0,0,0,0,0,0,0,3.3567,3.3562,3.3517,3.3514,3.3511,3.3499,3.3493,3.3478,3.3444,3.3465,3.3462,3.3457,3.341,3.3401,3.3398,3.3375,3.3375,3.3373,3.3372,3.3372,3.3352,3.3352,0,0,0,0,0,0,3.3574,3.3564,3.3519,3.3516,3.3536,3.3498,3.3492,3.3483,3.3444,3.3437,3.3457,3.3455,3.3405,3.34,3.3396,3.3394,3.3373,3.3371,3.337,3.3351,3.3352,3.3352,0,0,0,0,0,0,3.3576,3.3571,3.3521,3.3539,3.3532,3.3498,3.3489,3.3482,3.3473,3.3438,3.3431,3.3454,3.3404,3.3398,3.3385,3.3391,3.3371,3.3369,3.3351,3.3351,3.3352,3.339,0,0,0,0,0,0,3.3578,3.3572,3.3572,3.354,3.3531,3.3513,3.3489,3.3482,3.3471,3.3467,3.3433,3.3427,3.3403,3.3388,3.3384,3.3388,3.3368,3.335,3.3351,3.3352,3.3388,3.3392,3.3395,0,0,0,0,0,3.358,3.3584,3.3573,3.3567,3.3532,3.3513,3.3508,3.3482,3.3471,3.3471,3.3449,3.3428,3.3391,3.3387,3.3382,3.3386,3.3349,3.3351,3.3352,3.3386,3.3391,3.3395,0,0,0,0,0,0,3.3617,3.3579,3.3566,3.356,3.354,3.3507,3.3506,3.3488,3.347,3.3467,3.3434,3.3427,3.3417,3.34,3.3397,3.3384,3.3368,3.3368,3.3396,3.34,3.3404,3.3408,3.3366,0,0,0,0,0,3.3624,3.3614,3.3581,3.3579,3.357,3.354,3.3531,3.3512,3.349,3.3481,3.3457,3.3436,3.3419,3.3409,3.3391,3.3386,3.3377,3.3385,3.3389,3.3392,3.3393,3.3388,3.3391,3.3357,3.3357,3.3356,0,0,3.3639,3.3618,3.3613,3.3586,3.3568,3.3557,3.3533,3.3522,3.3513,3.3479,3.3466,3.3448,3.3421,3.3412,3.3407,3.3397,3.34,3.3394,3.3397,3.3395,3.3389,3.3393,3.3396,3.3357,3.3357,3.3357,0,0,3.3661,3.3644,3.364,3.3624,3.3599,3.3579,3.3578,3.3547,3.3534,3.3521,3.3495,3.3483,3.3456,3.3438,3.3425,3.3441,3.3421,3.3436,3.3455,3.345,3.3453,3.3455,3.346,3.3463,3.3437,3.3437,3.3437,0,3.3682,3.3666,3.364,3.3631,3.3619,3.359,3.3585,3.357,3.354,3.3532,3.3523,3.3488,3.3467,3.3454,3.3458,3.3448,3.3446,3.3439,3.3455,3.3457,3.3459,3.3463,3.3465,3.3439,3.3438,3.3438,3.3438,0,3.3693,3.3682,3.3682,3.3655,3.3644,3.3637,3.3609,3.36,3.3583,3.3564,3.355,3.3525,3.3503,3.3498,3.348,3.3482,3.3477,3.3462,3.3444,3.3464,3.3468,3.347,3.3441,3.3441,3.344,3.344,0,0,3.3735,3.3696,3.3696,3.3683,3.3654,3.3644,3.3636,3.3615,3.3608,3.3588,3.358,3.3558,3.3544,3.3529,3.351,3.3506,3.352,3.3491,3.349,3.3497,3.3519,3.353,3.3532,3.3507,3.3507,3.3507,3.3521,0,3.3752,3.3736,3.3713,3.3705,3.3694,3.3666,3.3659,3.3639,3.3621,3.3608,3.3587,3.3572,3.3555,3.3547,3.3542,3.3519,3.3524,3.3518,3.3497,3.3497,3.3504,3.3534,3.3546,3.356,3.3522,3.3522,3.3523,0,3.3768,3.3752,3.3744,3.3715,3.371,3.3704,3.3683,3.3672,3.3649,3.3636,3.362,3.3599,3.3588,3.3573,3.3556,3.3553,3.3543,3.353,3.353,3.3526,3.351,3.3531,3.3564,3.3565,3.3525,3.3524,3.3524,0,3.3799,3.3775,3.3767,3.3757,3.3724,3.3721,3.3706,3.3683,3.3672,3.3654,3.3646,3.3626,3.3615,3.36,3.3573,3.3565,3.3559,3.3542,3.3547,3.3547,3.3546,3.3546,3.3577,3.3541,3.3541,3.3541,3.3541,0,3.382,3.3815,3.3781,3.3775,3.3769,3.3742,3.3737,3.372,3.3699,3.3689,3.3664,3.3655,3.3621,3.3608,3.3587,3.3576,3.3571,3.3559,3.3553,3.3561,3.3562,3.3553,3.3551,3.3541,3.3541,3.3541,3.3541,0,3.3853,3.383,3.3819,3.3789,3.3781,3.3778,3.3752,3.3745,3.3726,3.3714,3.371,3.3679,3.3662,3.3635,3.3609,3.3595,3.3588,3.3579,3.3596,3.3592,3.3599,3.3598,3.3624,3.3626,3.359,3.359,3.359,0,3.3867,3.3863,3.3834,3.3826,3.3813,3.3801,3.3791,3.3764,3.3754,3.3728,3.3724,3.3705,3.3689,3.3663,3.3638,3.3618,3.3608,3.3618,3.3604,3.3612,3.3607,3.3607,3.3607,3.3621,3.3622,3.3622,3.3622,0,3.3894,3.3883,3.387,3.3853,3.3841,3.3826,3.3809,3.3804,3.3773,3.3763,3.3746,3.3734,3.3709,3.369,3.3667,3.3651,3.3631,3.3627,3.3627,3.3634,3.3644,3.3639,3.3604,3.3626,3.3626,3.3626,3.3625,3.3625,3.3918,3.3913,3.3892,3.3878,3.3863,3.3848,3.3841,3.3822,3.3808,3.3786,3.3771,3.3755,3.3732,3.3699,3.3684,3.3671,3.3662,3.3662,3.3662,3.3662,3.3665,3.3648,3.3666,3.3666,3.3666,3.3666,3.3666,0,3.3944,3.3929,3.3916,3.3895,3.3883,3.3868,3.3849,3.384,3.3827,3.3808,3.3793,3.3774,3.3756,3.373,3.371,3.3704,3.3694,3.3699,3.3699,3.3695,3.3674,3.3676,3.3707,3.3707,3.3707,3.3707,3.3707,3.3707,3.3956,3.3947,3.3934,3.3917,3.3902,3.3888,3.3878,3.3864,3.3849,3.3829,3.3815,3.3798,3.3776,3.3754,3.3737,3.373,3.3723,3.3731,3.3721,3.3701,3.3697,3.3693,3.3695,3.373,3.373,3.3743,3.3743,3.3743]}]]